IGO1422 OMSJ-VOHS

Flight info

Callsign IGO1422
Flight time 3h 25m
Altitude 35000
Route IVURO M428 MUNGA A777 VAXIM P307 PARAR N571 SUGID DCT AROTA DCT BBB W28 PONIP NAMSA8
Aircraft A21N/M-SDE2E3FGHIRWXY/LB1

Departure

Time 2026-04-28 06:34
Airport Sharjah International Airport (OMSJ)

Arrival

Time 2026-04-28 10:00
Airport Rajiv Gandhi International Airport (VOHS)
Time Latitude Longitude Altitude Speed Heading
2026-04-28 06:00 25.32377 55.51899 113 ft 0 kts 216°
2026-04-28 06:17 25.32383 55.51903 109 ft 3 kts 216°
2026-04-28 06:18 25.32413 55.51928 108 ft 3 kts 216°
2026-04-28 06:18 25.32428 55.51940 109 ft 3 kts 216°
2026-04-28 06:18 25.32444 55.51952 109 ft 3 kts 216°
2026-04-28 06:18 25.32459 55.51964 110 ft 3 kts 216°
2026-04-28 06:19 25.32474 55.51976 110 ft 3 kts 216°
2026-04-28 06:19 25.32488 55.51991 110 ft 3 kts 248°
2026-04-28 06:19 25.32493 55.52011 109 ft 3 kts 282°
2026-04-28 06:19 25.32493 55.52017 109 ft 0 kts 291°
2026-04-28 06:22 25.32492 55.52019 109 ft 0 kts 291°
2026-04-28 06:24 25.32493 55.52015 109 ft 1 kts 291°
2026-04-28 06:24 25.32498 55.52004 110 ft 2 kts 294°
2026-04-28 06:24 25.32515 55.51974 112 ft 7 kts 302°
2026-04-28 06:24 25.32549 55.51913 111 ft 11 kts 302°
2026-04-28 06:25 25.32584 55.51852 111 ft 7 kts 302°
2026-04-28 06:25 25.32604 55.51817 110 ft 4 kts 302°
2026-04-28 06:25 25.32625 55.51781 111 ft 7 kts 302°
2026-04-28 06:25 25.32644 55.51748 109 ft 9 kts 302°
2026-04-28 06:26 25.32694 55.51660 110 ft 12 kts 302°
2026-04-28 06:26 25.32722 55.51612 109 ft 10 kts 302°
2026-04-28 06:26 25.32780 55.51513 108 ft 13 kts 303°
2026-04-28 06:26 25.32828 55.51428 108 ft 13 kts 302°
2026-04-28 06:27 25.32874 55.51349 108 ft 12 kts 303°
2026-04-28 06:27 25.32903 55.51300 107 ft 11 kts 306°
2026-04-28 06:27 25.32960 55.51298 107 ft 8 kts 30°
2026-04-28 06:27 25.33015 55.51336 107 ft 6 kts 32°
2026-04-28 06:28 25.33047 55.51346 107 ft 7 kts
2026-04-28 06:28 25.33090 55.51316 107 ft 8 kts 309°
2026-04-28 06:28 25.33123 55.51262 106 ft 9 kts 303°
2026-04-28 06:28 25.33158 55.51202 106 ft 10 kts 302°
2026-04-28 06:29 25.33196 55.51136 105 ft 11 kts 302°
2026-04-28 06:29 25.33236 55.51067 105 ft 11 kts 302°
2026-04-28 06:29 25.33280 55.50991 103 ft 12 kts 302°
2026-04-28 06:29 25.33325 55.50912 103 ft 13 kts 302°
2026-04-28 06:30 25.33372 55.50828 103 ft 13 kts 302°
2026-04-28 06:30 25.33422 55.50742 101 ft 14 kts 302°
2026-04-28 06:30 25.33473 55.50652 101 ft 14 kts 302°
2026-04-28 06:30 25.33525 55.50560 101 ft 12 kts 302°
2026-04-28 06:31 25.33571 55.50482 100 ft 12 kts 303°
2026-04-28 06:31 25.33618 55.50401 100 ft 13 kts 303°
2026-04-28 06:31 25.33668 55.50316 99 ft 13 kts 303°
2026-04-28 06:31 25.33718 55.50227 99 ft 14 kts 302°
2026-04-28 06:32 25.33782 55.50171 99 ft 11 kts
2026-04-28 06:32 25.33808 55.50182 98 ft 2 kts 24°
2026-04-28 06:32 25.33809 55.50183 98 ft 0 kts 26°
2026-04-28 06:33 25.33812 55.50185 98 ft 3 kts 27°
2026-04-28 06:33 25.33872 55.50226 98 ft 14 kts 32°
2026-04-28 06:33 25.33924 55.50318 98 ft 16 kts 90°
2026-04-28 06:33 25.33861 55.50451 99 ft 32 kts 122°
2026-04-28 06:34 25.33603 55.50899 101 ft 106 kts 122°
2026-04-28 06:34 25.33078 55.51812 113 ft 174 kts 122°
2026-04-28 06:34 25.32382 55.53075 660 ft 204 kts 122°
2026-04-28 06:34 25.31575 55.54517 1223 ft 242 kts 123°
2026-04-28 06:35 25.30599 55.56196 1749 ft 271 kts 123°
2026-04-28 06:35 25.29567 55.57998 2547 ft 283 kts 122°
2026-04-28 06:35 25.28517 55.59864 3450 ft 288 kts 122°
2026-04-28 06:35 25.27510 55.61663 4867 ft 254 kts 122°
2026-04-28 06:36 25.26558 55.63369 5203 ft 273 kts 122°
2026-04-28 06:36 25.25560 55.65159 5936 ft 271 kts 122°
2026-04-28 06:36 25.24800 55.67052 6636 ft 272 kts 97°
2026-04-28 06:36 25.25054 55.69092 7280 ft 272 kts 65°
2026-04-28 06:37 25.25969 55.70958 7759 ft 280 kts 60°
2026-04-28 06:37 25.26866 55.72881 8355 ft 283 kts 66°
2026-04-28 06:37 25.27503 55.74937 8959 ft 285 kts 78°
2026-04-28 06:37 25.27784 55.77113 9506 ft 288 kts 85°
2026-04-28 06:38 25.27960 55.79331 10012 ft 294 kts 84°
2026-04-28 06:38 25.28243 55.81605 9997 ft 295 kts 80°
2026-04-28 06:38 25.28588 55.83823 9999 ft 296 kts 81°
2026-04-28 06:38 25.28895 55.86050 9998 ft 291 kts 82°
2026-04-28 06:39 25.29177 55.88280 10003 ft 293 kts 82°
2026-04-28 06:39 25.29471 55.90495 10011 ft 293 kts 81°
2026-04-28 06:39 25.29772 55.92719 10007 ft 292 kts 81°
2026-04-28 06:39 25.30069 55.94942 10004 ft 293 kts 82°
2026-04-28 06:40 25.30351 55.97160 10007 ft 292 kts 86°
2026-04-28 06:40 25.30253 55.99402 10004 ft 293 kts 99°
2026-04-28 06:40 25.29891 56.01579 10008 ft 292 kts 101°
2026-04-28 06:40 25.29519 56.03838 10199 ft 308 kts 98°
2026-04-28 06:41 25.29259 56.06272 10245 ft 329 kts 95°
2026-04-28 06:41 25.29029 56.08793 10876 ft 328 kts 96°
2026-04-28 06:41 25.28742 56.11297 11443 ft 331 kts 98°
2026-04-28 06:41 25.28432 56.13834 11938 ft 335 kts 97°
2026-04-28 06:42 25.28144 56.16394 12475 ft 337 kts 97°
2026-04-28 06:42 25.27860 56.18974 12978 ft 339 kts 97°
2026-04-28 06:42 25.27564 56.21571 13436 ft 343 kts 97°
2026-04-28 06:42 25.27262 56.24197 13930 ft 345 kts 97°
2026-04-28 06:43 25.26964 56.26829 14422 ft 347 kts 97°
2026-04-28 06:43 25.26661 56.29481 14858 ft 349 kts 97°
2026-04-28 06:43 25.26357 56.32142 15315 ft 350 kts 97°
2026-04-28 06:43 25.26050 56.34826 15724 ft 353 kts 97°
2026-04-28 06:44 25.25560 56.37478 16154 ft 354 kts 108°
2026-04-28 06:44 25.24720 56.40036 16519 ft 357 kts 111°
2026-04-28 06:44 25.23821 56.42603 16904 ft 359 kts 111°
2026-04-28 06:44 25.22962 56.45197 17275 ft 360 kts 109°
2026-04-28 06:45 25.22122 56.47812 17632 ft 363 kts 110°
2026-04-28 06:45 25.21255 56.50434 17990 ft 364 kts 110°
2026-04-28 06:45 25.20372 56.53068 18327 ft 366 kts 110°
2026-04-28 06:45 25.19495 56.55717 18668 ft 368 kts 110°
2026-04-28 06:46 25.18598 56.58359 18892 ft 367 kts 114°
2026-04-28 06:46 25.17581 56.60943 18903 ft 371 kts 112°
2026-04-28 06:46 25.16633 56.63566 19246 ft 372 kts 111°
2026-04-28 06:46 25.15671 56.66217 19673 ft 373 kts 112°
2026-04-28 06:47 25.14657 56.68863 19986 ft 376 kts 113°
2026-04-28 06:47 25.13634 56.71524 20336 ft 378 kts 112°
2026-04-28 06:47 25.12630 56.74207 20668 ft 380 kts 112°
2026-04-28 06:47 25.11618 56.76908 20986 ft 381 kts 112°
2026-04-28 06:48 25.10591 56.79615 21302 ft 383 kts 113°
2026-04-28 06:48 25.09561 56.82332 21619 ft 385 kts 112°
2026-04-28 06:48 25.08528 56.85068 21901 ft 387 kts 112°
2026-04-28 06:48 25.07489 56.87814 22190 ft 389 kts 112°
2026-04-28 06:49 25.06444 56.90567 22471 ft 390 kts 112°
2026-04-28 06:49 25.05396 56.93335 22742 ft 392 kts 112°
2026-04-28 06:49 25.04341 56.96116 23014 ft 394 kts 112°
2026-04-28 06:49 25.03280 56.98908 23266 ft 395 kts 112°
2026-04-28 06:50 25.02218 57.01706 23534 ft 397 kts 112°
2026-04-28 06:50 25.01149 57.04519 23777 ft 398 kts 113°
2026-04-28 06:50 25.00075 57.07340 24023 ft 400 kts 112°
2026-04-28 06:50 24.98998 57.10172 24258 ft 401 kts 112°
2026-04-28 06:51 24.97915 57.13016 24484 ft 403 kts 113°
2026-04-28 06:51 24.96828 57.15865 24710 ft 404 kts 113°
2026-04-28 06:51 24.95737 57.18727 24929 ft 406 kts 113°
2026-04-28 06:51 24.94643 57.21595 25143 ft 407 kts 113°
2026-04-28 06:52 24.93543 57.24474 25343 ft 408 kts 113°
2026-04-28 06:52 24.92441 57.27358 25556 ft 410 kts 113°
2026-04-28 06:52 24.91332 57.30259 25752 ft 411 kts 113°
2026-04-28 06:52 24.90219 57.33164 25944 ft 412 kts 113°
2026-04-28 06:53 24.89104 57.36076 26131 ft 413 kts 113°
2026-04-28 06:53 24.87985 57.38999 26310 ft 415 kts 113°
2026-04-28 06:53 24.86862 57.41925 26496 ft 416 kts 113°
2026-04-28 06:53 24.85735 57.44862 26671 ft 417 kts 113°
2026-04-28 06:54 24.84605 57.47807 26848 ft 418 kts 113°
2026-04-28 06:54 24.83470 57.50758 27012 ft 419 kts 113°
2026-04-28 06:54 24.82334 57.53712 27175 ft 420 kts 113°
2026-04-28 06:54 24.81209 57.56638 27334 ft 421 kts 113°
2026-04-28 06:55 24.80064 57.59610 27492 ft 422 kts 113°
2026-04-28 06:55 24.78914 57.62593 27649 ft 423 kts 113°
2026-04-28 06:55 24.77765 57.65575 27787 ft 424 kts 113°
2026-04-28 06:55 24.76610 57.68567 27942 ft 425 kts 113°
2026-04-28 06:56 24.75452 57.71564 28083 ft 426 kts 113°
2026-04-28 06:56 24.74290 57.74574 28224 ft 427 kts 113°
2026-04-28 06:56 24.73137 57.77584 28360 ft 428 kts 111°
2026-04-28 06:56 24.72176 57.80685 28487 ft 429 kts 108°
2026-04-28 06:57 24.71202 57.83790 28616 ft 430 kts 109°
2026-04-28 06:57 24.70207 57.86885 28747 ft 431 kts 109°
2026-04-28 06:57 24.69228 57.90022 28876 ft 432 kts 109°
2026-04-28 06:57 24.68270 57.93145 29001 ft 433 kts 109°
2026-04-28 06:58 24.67289 57.96280 29123 ft 433 kts 109°
2026-04-28 06:58 24.66300 57.99408 29242 ft 434 kts 109°
2026-04-28 06:58 24.65316 58.02552 29358 ft 435 kts 109°
2026-04-28 06:58 24.64333 58.05706 29468 ft 436 kts 109°
2026-04-28 06:59 24.63344 58.08854 29580 ft 437 kts 109°
2026-04-28 06:59 24.62350 58.12013 29695 ft 437 kts 109°
2026-04-28 06:59 24.61357 58.15176 29796 ft 438 kts 109°
2026-04-28 06:59 24.60363 58.18340 29903 ft 439 kts 109°
2026-04-28 07:00 24.59364 58.21508 30013 ft 440 kts 109°
2026-04-28 07:00 24.57361 58.27869 30202 ft 441 kts 109°
2026-04-28 07:01 24.55347 58.34245 30399 ft 442 kts 109°
2026-04-28 07:01 24.53326 58.40636 30582 ft 444 kts 109°
2026-04-28 07:02 24.51301 58.47035 30760 ft 445 kts 109°
2026-04-28 07:02 24.49264 58.53451 30922 ft 446 kts 109°
2026-04-28 07:03 24.47215 58.59900 31090 ft 447 kts 109°
2026-04-28 07:03 24.45163 58.66349 31243 ft 448 kts 109°
2026-04-28 07:04 24.43101 58.72814 31391 ft 449 kts 109°
2026-04-28 07:04 24.40692 58.79136 31527 ft 450 kts 116°
2026-04-28 07:05 24.37930 58.85306 31662 ft 451 kts 116°
2026-04-28 07:05 24.35185 58.91503 31801 ft 452 kts 116°
2026-04-28 07:06 24.32413 58.97706 31923 ft 453 kts 116°
2026-04-28 07:06 24.29646 59.03913 32057 ft 454 kts 116°
2026-04-28 07:07 24.26883 59.10094 32177 ft 455 kts 116°
2026-04-28 07:07 24.24094 59.16323 32294 ft 456 kts 116°
2026-04-28 07:08 24.21300 59.22562 32406 ft 457 kts 116°
2026-04-28 07:08 24.18497 59.28807 32519 ft 457 kts 116°
2026-04-28 07:09 24.15684 59.35067 32621 ft 458 kts 116°
2026-04-28 07:09 24.12867 59.41329 32723 ft 459 kts 116°
2026-04-28 07:10 24.10042 59.47598 32823 ft 460 kts 116°
2026-04-28 07:10 24.07208 59.53880 32917 ft 460 kts 116°
2026-04-28 07:11 24.04371 59.60162 33014 ft 461 kts 116°
2026-04-28 07:11 24.01524 59.66454 33101 ft 462 kts 116°
2026-04-28 07:12 23.98673 59.72750 33188 ft 462 kts 116°
2026-04-28 07:12 23.97261 59.75864 33631 ft 452 kts 116°
2026-04-28 07:12 23.95869 59.78933 33748 ft 451 kts 116°
2026-04-28 07:13 23.93105 59.85018 34388 ft 435 kts 116°
2026-04-28 07:13 23.91764 59.87969 34516 ft 433 kts 116°
2026-04-28 07:13 23.90428 59.90908 34682 ft 428 kts 116°
2026-04-28 07:13 23.89108 59.93804 34837 ft 425 kts 116°
2026-04-28 07:14 23.87811 59.96656 34911 ft 423 kts 116°
2026-04-28 07:14 23.85617 60.01468 35067 ft 418 kts 116°
2026-04-28 07:15 23.82604 60.08074 34999 ft 417 kts 116°
2026-04-28 07:15 23.80017 60.13731 35004 ft 416 kts 116°
2026-04-28 07:16 23.77433 60.19381 35015 ft 418 kts 116°
2026-04-28 07:16 23.74777 60.25181 35010 ft 437 kts 116°
2026-04-28 07:17 23.72459 60.30233 35009 ft 450 kts 116°
2026-04-28 07:17 23.69619 60.36423 35011 ft 461 kts 117°
2026-04-28 07:18 23.66735 60.42694 35010 ft 462 kts 116°
2026-04-28 07:18 23.63858 60.48946 35008 ft 461 kts 117°
2026-04-28 07:19 23.60983 60.55186 35013 ft 460 kts 117°
2026-04-28 07:19 23.58109 60.61410 35012 ft 459 kts 117°
2026-04-28 07:20 23.55236 60.67628 35008 ft 459 kts 117°
2026-04-28 07:20 23.52359 60.73847 35013 ft 460 kts 117°
2026-04-28 07:21 23.49470 60.80079 35011 ft 462 kts 117°
2026-04-28 07:21 23.46575 60.86324 35014 ft 461 kts 117°
2026-04-28 07:22 23.42253 60.95626 35006 ft 461 kts 117°
2026-04-28 07:22 23.39356 61.01847 35003 ft 460 kts 117°
2026-04-28 07:23 23.36470 61.08042 35012 ft 460 kts 117°
2026-04-28 07:23 23.33570 61.14259 35011 ft 459 kts 117°
2026-04-28 07:24 23.30765 61.20500 35012 ft 459 kts 115°
2026-04-28 07:24 23.27917 61.26716 35012 ft 461 kts 117°
2026-04-28 07:25 23.25155 61.33014 35011 ft 462 kts 115°
2026-04-28 07:25 23.22338 61.39299 35012 ft 461 kts 116°
2026-04-28 07:26 23.19549 61.45573 35011 ft 460 kts 116°
2026-04-28 07:26 23.16751 61.51829 35007 ft 460 kts 116°
2026-04-28 07:27 23.13964 61.58072 35008 ft 459 kts 116°
2026-04-28 07:27 23.11165 61.64317 35009 ft 460 kts 116°
2026-04-28 07:28 23.08368 61.70563 35007 ft 461 kts 116°
2026-04-28 07:28 23.05548 61.76841 35006 ft 462 kts 116°
2026-04-28 07:29 23.02734 61.83108 35004 ft 461 kts 116°
2026-04-28 07:29 22.99922 61.89358 35006 ft 460 kts 116°
2026-04-28 07:30 22.97114 61.95589 35004 ft 459 kts 116°
2026-04-28 07:30 22.94307 62.01815 35005 ft 460 kts 116°
2026-04-28 07:31 22.91484 62.08064 35012 ft 462 kts 116°
2026-04-28 07:31 22.88653 62.14325 35013 ft 462 kts 116°
2026-04-28 07:32 22.85825 62.20571 35011 ft 461 kts 116°
2026-04-28 07:32 22.82998 62.26804 35013 ft 460 kts 116°
2026-04-28 07:33 22.80180 62.33013 35009 ft 459 kts 116°
2026-04-28 07:33 22.77374 62.39187 35010 ft 460 kts 116°
2026-04-28 07:34 22.74543 62.45405 35011 ft 462 kts 116°
2026-04-28 07:34 22.71694 62.51661 35013 ft 461 kts 116°
2026-04-28 07:35 22.68854 62.57883 35008 ft 461 kts 116°
2026-04-28 07:35 22.66016 62.64096 35005 ft 460 kts 116°
2026-04-28 07:36 22.63181 62.70295 35005 ft 459 kts 116°
2026-04-28 07:36 22.60341 62.76495 35003 ft 460 kts 116°
2026-04-28 07:37 22.57494 62.82704 35011 ft 461 kts 116°
2026-04-28 07:37 22.54641 62.88919 35010 ft 462 kts 116°
2026-04-28 07:38 22.51809 62.95078 35011 ft 461 kts 116°
2026-04-28 07:38 22.48928 63.01340 35003 ft 460 kts 116°
2026-04-28 07:39 22.46079 63.07520 35005 ft 459 kts 116°
2026-04-28 07:39 22.43232 63.13702 35016 ft 460 kts 116°
2026-04-28 07:40 22.40496 63.19914 35008 ft 461 kts 115°
2026-04-28 07:40 22.37684 63.26151 35009 ft 462 kts 116°
2026-04-28 07:41 22.34904 63.32387 35007 ft 461 kts 116°
2026-04-28 07:41 22.32091 63.38641 35009 ft 460 kts 116°
2026-04-28 07:42 22.29305 63.44858 35010 ft 459 kts 116°
2026-04-28 07:42 22.26514 63.51059 35011 ft 460 kts 116°
2026-04-28 07:43 22.23728 63.57252 35005 ft 461 kts 116°
2026-04-28 07:43 22.20910 63.63503 35010 ft 462 kts 116°
2026-04-28 07:44 22.18094 63.69743 35007 ft 462 kts 116°
2026-04-28 07:44 22.15288 63.75956 35011 ft 460 kts 116°
2026-04-28 07:45 22.12482 63.82155 35009 ft 459 kts 116°
2026-04-28 07:45 22.09678 63.88349 35008 ft 460 kts 116°
2026-04-28 07:46 22.06869 63.94544 35006 ft 461 kts 116°
2026-04-28 07:46 22.04047 64.00756 35004 ft 461 kts 116°
2026-04-28 07:47 22.01227 64.06963 35006 ft 461 kts 116°
2026-04-28 07:47 21.98401 64.13169 35013 ft 461 kts 116°
2026-04-28 07:48 21.95597 64.19322 35012 ft 460 kts 116°
2026-04-28 07:48 21.92781 64.25496 35011 ft 459 kts 116°
2026-04-28 07:49 21.89957 64.31674 35012 ft 460 kts 116°
2026-04-28 07:49 21.87127 64.37863 35008 ft 462 kts 116°
2026-04-28 07:50 21.84287 64.44065 35009 ft 462 kts 116°
2026-04-28 07:50 21.81448 64.50254 35008 ft 461 kts 116°
2026-04-28 07:51 21.78613 64.56433 35013 ft 459 kts 116°
2026-04-28 07:51 21.75783 64.62590 35010 ft 460 kts 116°
2026-04-28 07:52 21.72945 64.68755 35013 ft 461 kts 116°
2026-04-28 07:52 21.70097 64.74942 35008 ft 462 kts 116°
2026-04-28 07:53 21.67250 64.81111 35004 ft 462 kts 116°
2026-04-28 07:53 21.64385 64.87315 35007 ft 461 kts 116°
2026-04-28 07:54 21.61537 64.93477 35008 ft 460 kts 116°
2026-04-28 07:54 21.58689 64.99625 35007 ft 459 kts 116°
2026-04-28 07:55 21.55842 65.05772 35011 ft 460 kts 116°
2026-04-28 07:55 21.52982 65.11934 35006 ft 461 kts 116°
2026-04-28 07:56 21.50122 65.18089 35007 ft 462 kts 116°
2026-04-28 07:56 21.47251 65.24265 35011 ft 462 kts 116°
2026-04-28 07:57 21.44378 65.30432 35005 ft 461 kts 116°
2026-04-28 07:57 21.41510 65.36584 35007 ft 460 kts 116°
2026-04-28 07:58 21.38651 65.42711 35013 ft 460 kts 116°
2026-04-28 07:58 21.35781 65.48848 35010 ft 460 kts 117°
2026-04-28 07:59 21.32911 65.54987 35005 ft 461 kts 117°
2026-04-28 07:59 21.30030 65.61137 35003 ft 462 kts 117°
2026-04-28 08:00 21.27144 65.67288 35011 ft 462 kts 117°
2026-04-28 08:00 21.24254 65.73447 35013 ft 461 kts 117°
2026-04-28 08:01 21.21371 65.79578 35009 ft 460 kts 117°
2026-04-28 08:01 21.18979 65.84663 35010 ft 459 kts 117°
2026-04-28 08:02 21.15614 65.91807 35010 ft 460 kts 117°
2026-04-28 08:02 21.13210 65.96902 35010 ft 461 kts 117°
2026-04-28 08:03 21.10333 66.03047 35006 ft 462 kts 116°
2026-04-28 08:03 21.07567 66.09258 35010 ft 461 kts 116°
2026-04-28 08:04 21.04738 66.15414 35011 ft 460 kts 116°
2026-04-28 08:04 21.01500 66.22571 35006 ft 459 kts 116°
2026-04-28 08:05 20.99145 66.27717 35011 ft 460 kts 116°
2026-04-28 08:05 20.96341 66.33881 35008 ft 461 kts 116°
2026-04-28 08:06 20.93520 66.40052 35006 ft 462 kts 116°
2026-04-28 08:06 20.90701 66.46225 35008 ft 461 kts 116°
2026-04-28 08:07 20.87904 66.52337 35009 ft 461 kts 116°
2026-04-28 08:07 20.85087 66.58483 35013 ft 460 kts 116°
2026-04-28 08:08 20.82274 66.64618 35004 ft 459 kts 116°
2026-04-28 08:08 20.79462 66.70742 35014 ft 460 kts 116°
2026-04-28 08:09 20.76637 66.76885 35007 ft 461 kts 116°
2026-04-28 08:09 20.73805 66.83043 35011 ft 462 kts 116°
2026-04-28 08:10 20.70970 66.89191 35005 ft 461 kts 116°
2026-04-28 08:10 20.68139 66.95331 35010 ft 460 kts 116°
2026-04-28 08:11 20.65311 67.01456 35011 ft 460 kts 116°
2026-04-28 08:11 20.62481 67.07574 35006 ft 459 kts 116°
2026-04-28 08:12 20.59654 67.13684 35012 ft 459 kts 116°
2026-04-28 08:12 20.56816 67.19808 35013 ft 461 kts 116°
2026-04-28 08:13 20.53972 67.25938 35008 ft 462 kts 116°
2026-04-28 08:13 20.51120 67.32081 35003 ft 462 kts 116°
2026-04-28 08:14 20.48269 67.38210 35005 ft 461 kts 116°
2026-04-28 08:14 20.45425 67.44322 35012 ft 459 kts 116°
2026-04-28 08:15 20.42581 67.50425 35007 ft 460 kts 116°
2026-04-28 08:15 20.39732 67.56529 35013 ft 460 kts 116°
2026-04-28 08:16 20.36877 67.62644 35004 ft 461 kts 116°
2026-04-28 08:16 20.34016 67.68763 35007 ft 462 kts 116°
2026-04-28 08:17 20.31146 67.74894 35011 ft 462 kts 116°
2026-04-28 08:17 20.28282 67.81007 35005 ft 461 kts 116°
2026-04-28 08:18 20.25419 67.87106 35008 ft 460 kts 116°
2026-04-28 08:18 20.22562 67.93192 35010 ft 459 kts 116°
2026-04-28 08:19 20.19703 67.99274 35014 ft 460 kts 116°
2026-04-28 08:19 20.16850 68.05332 35011 ft 461 kts 116°
2026-04-28 08:20 20.13974 68.11440 35005 ft 462 kts 117°
2026-04-28 08:20 20.11091 68.17548 35010 ft 461 kts 117°
2026-04-28 08:21 20.08215 68.23639 35009 ft 460 kts 117°
2026-04-28 08:21 20.05344 68.29716 35011 ft 459 kts 117°
2026-04-28 08:22 20.02471 68.35782 35008 ft 460 kts 117°
2026-04-28 08:22 19.99590 68.41865 35006 ft 461 kts 117°
2026-04-28 08:23 19.96700 68.47960 35010 ft 462 kts 117°
2026-04-28 08:23 19.93805 68.54053 35012 ft 461 kts 117°
2026-04-28 08:24 19.90919 68.60128 35010 ft 460 kts 117°
2026-04-28 08:24 19.88033 68.66192 35005 ft 459 kts 117°
2026-04-28 08:25 19.85148 68.72247 35005 ft 460 kts 117°
2026-04-28 08:26 19.80810 68.81343 35006 ft 461 kts 117°
2026-04-28 08:26 19.77909 68.87418 35009 ft 462 kts 117°
2026-04-28 08:27 19.74998 68.93503 35005 ft 462 kts 117°
2026-04-28 08:27 19.72093 68.99575 35009 ft 461 kts 117°
2026-04-28 08:28 19.69193 69.05628 35008 ft 460 kts 117°
2026-04-28 08:28 19.66293 69.11671 35009 ft 460 kts 117°
2026-04-28 08:29 19.63390 69.17720 35012 ft 461 kts 117°
2026-04-28 08:29 19.60475 69.23781 35009 ft 462 kts 117°
2026-04-28 08:30 19.57556 69.29848 35006 ft 462 kts 117°
2026-04-28 08:30 19.54641 69.35903 35011 ft 461 kts 117°
2026-04-28 08:31 19.51756 69.41953 35014 ft 459 kts 117°
2026-04-28 08:31 19.48866 69.47993 35013 ft 460 kts 117°
2026-04-28 08:32 19.45974 69.54041 35004 ft 461 kts 117°
2026-04-28 08:32 19.43069 69.60100 35010 ft 461 kts 117°
2026-04-28 08:33 19.40163 69.66163 35014 ft 462 kts 117°
2026-04-28 08:33 19.37250 69.72231 35010 ft 462 kts 117°
2026-04-28 08:34 19.34341 69.78282 35002 ft 461 kts 117°
2026-04-28 08:34 19.31458 69.84277 35004 ft 459 kts 117°
2026-04-28 08:35 19.28556 69.90300 35011 ft 459 kts 117°
2026-04-28 08:35 19.25650 69.96329 35006 ft 460 kts 117°
2026-04-28 08:36 19.22736 70.02370 35003 ft 461 kts 117°
2026-04-28 08:36 19.19811 70.08421 35008 ft 462 kts 117°
2026-04-28 08:37 19.16888 70.14468 35003 ft 461 kts 117°
2026-04-28 08:37 19.14044 70.20535 35007 ft 460 kts 109°
2026-04-28 08:37 19.13399 70.23828 35035 ft 460 kts 92°
2026-04-28 08:38 19.13306 70.27226 35002 ft 462 kts 90°
2026-04-28 08:38 19.13308 70.33999 35004 ft 460 kts 91°
2026-04-28 08:39 19.13184 70.40769 35012 ft 460 kts 90°
2026-04-28 08:39 19.13130 70.47538 35012 ft 461 kts 91°
2026-04-28 08:40 19.13030 70.54318 35015 ft 461 kts 91°
2026-04-28 08:40 19.12953 70.61096 35005 ft 461 kts 91°
2026-04-28 08:41 19.12859 70.67880 35006 ft 462 kts 91°
2026-04-28 08:41 19.12770 70.74673 35006 ft 462 kts 91°
2026-04-28 08:42 19.12676 70.81425 35007 ft 462 kts 91°
2026-04-28 08:42 19.12579 70.88269 35010 ft 463 kts 91°
2026-04-28 08:43 19.12482 70.95008 35015 ft 461 kts 91°
2026-04-28 08:43 19.12379 71.01777 35008 ft 460 kts 91°
2026-04-28 08:44 19.12277 71.08538 35003 ft 460 kts 91°
2026-04-28 08:44 19.12171 71.15306 35008 ft 461 kts 91°
2026-04-28 08:45 19.12061 71.22089 35004 ft 462 kts 91°
2026-04-28 08:45 19.11951 71.28879 35012 ft 462 kts 91°
2026-04-28 08:46 19.11837 71.35673 35008 ft 461 kts 91°
2026-04-28 08:46 19.11720 71.42447 35012 ft 460 kts 91°
2026-04-28 08:47 19.11603 71.49209 35008 ft 459 kts 91°
2026-04-28 08:47 19.11482 71.55962 35008 ft 460 kts 91°
2026-04-28 08:48 19.11359 71.62732 35014 ft 461 kts 91°
2026-04-28 08:48 19.11233 71.69510 35009 ft 461 kts 91°
2026-04-28 08:49 19.11103 71.76296 35011 ft 462 kts 91°
2026-04-28 08:49 19.10973 71.83092 35006 ft 462 kts 91°
2026-04-28 08:50 19.10862 71.88729 35009 ft 461 kts 91°
2026-04-28 08:50 19.10727 71.95492 35013 ft 459 kts 91°
2026-04-28 08:51 19.10590 72.02251 35009 ft 460 kts 91°
2026-04-28 08:51 19.10449 72.09011 35009 ft 460 kts 91°
2026-04-28 08:52 19.10307 72.15787 35009 ft 461 kts 91°
2026-04-28 08:52 19.10161 72.22571 35013 ft 462 kts 91°
2026-04-28 08:53 19.10012 72.29358 35010 ft 462 kts 91°
2026-04-28 08:53 19.09863 72.36151 35015 ft 462 kts 91°
2026-04-28 08:54 19.09709 72.42936 35007 ft 461 kts 91°
2026-04-28 08:54 19.09554 72.49699 35009 ft 460 kts 91°
2026-04-28 08:55 19.09398 72.56451 35008 ft 460 kts 91°
2026-04-28 08:55 19.09237 72.63170 35009 ft 461 kts 91°
2026-04-28 08:56 19.09075 72.69992 35006 ft 461 kts 91°
2026-04-28 08:56 19.08909 72.76775 35009 ft 462 kts 91°
2026-04-28 08:57 19.08741 72.83521 35008 ft 462 kts 91°
2026-04-28 08:57 19.08458 72.86890 35011 ft 460 kts 105°
2026-04-28 08:57 19.07332 72.90048 35030 ft 461 kts 117°
2026-04-28 08:58 19.04264 72.96001 35006 ft 460 kts 119°
2026-04-28 08:58 19.01240 73.01959 35004 ft 460 kts 118°
2026-04-28 08:59 18.98199 73.07909 35013 ft 460 kts 118°
2026-04-28 08:59 18.95160 73.13862 35012 ft 460 kts 118°
2026-04-28 09:00 18.92118 73.19811 35007 ft 460 kts 118°
2026-04-28 09:00 18.89070 73.25762 35007 ft 461 kts 118°
2026-04-28 09:01 18.86026 73.31706 35012 ft 462 kts 118°
2026-04-28 09:01 18.82966 73.37672 35010 ft 462 kts 118°
2026-04-28 09:02 18.80020 73.43717 35009 ft 467 kts 115°
2026-04-28 09:02 18.77193 73.49889 35006 ft 465 kts 116°
2026-04-28 09:03 18.74422 73.56054 35014 ft 465 kts 115°
2026-04-28 09:03 18.71630 73.62209 35007 ft 467 kts 116°
2026-04-28 09:04 18.68844 73.68365 35007 ft 464 kts 115°
2026-04-28 09:04 18.66058 73.74506 35006 ft 464 kts 116°
2026-04-28 09:05 18.63271 73.80649 35011 ft 465 kts 115°
2026-04-28 09:05 18.60494 73.86758 35004 ft 465 kts 116°
2026-04-28 09:06 18.57771 73.92942 35015 ft 466 kts 113°
2026-04-28 09:06 18.55027 73.99128 35013 ft 465 kts 115°
2026-04-28 09:07 18.52371 74.05326 35004 ft 464 kts 114°
2026-04-28 09:07 18.49682 74.11514 35005 ft 464 kts 115°
2026-04-28 09:08 18.47000 74.17698 35009 ft 464 kts 114°
2026-04-28 09:08 18.44316 74.23883 35009 ft 465 kts 115°
2026-04-28 09:09 18.41623 74.30077 35008 ft 466 kts 114°
2026-04-28 09:09 18.38926 74.36277 35000 ft 465 kts 115°
2026-04-28 09:10 18.36230 74.42464 35009 ft 465 kts 115°
2026-04-28 09:10 18.33529 74.48660 35010 ft 465 kts 115°
2026-04-28 09:11 18.30829 74.54845 35008 ft 465 kts 115°
2026-04-28 09:11 18.28130 74.61024 35013 ft 465 kts 115°
2026-04-28 09:12 18.25428 74.67200 35013 ft 465 kts 115°
2026-04-28 09:12 18.22732 74.73380 35004 ft 465 kts 114°
2026-04-28 09:13 18.20115 74.79458 35009 ft 451 kts 114°
2026-04-28 09:13 18.17563 74.85333 34998 ft 433 kts 114°
2026-04-28 09:14 18.15120 74.90979 34999 ft 415 kts 115°
2026-04-28 09:14 18.12772 74.96380 34992 ft 397 kts 114°
2026-04-28 09:15 18.10542 75.01519 34998 ft 376 kts 115°
2026-04-28 09:15 18.09468 75.03987 35003 ft 365 kts 115°
2026-04-28 09:15 18.08432 75.06369 34997 ft 352 kts 115°
2026-04-28 09:15 18.07437 75.08656 34996 ft 336 kts 115°
2026-04-28 09:16 18.06496 75.10820 34946 ft 314 kts 115°
2026-04-28 09:16 18.05603 75.12871 34350 ft 308 kts 115°
2026-04-28 09:16 18.04693 75.14959 33225 ft 321 kts 115°
2026-04-28 09:16 18.04166 75.16168 32678 ft 325 kts 115°
2026-04-28 09:17 18.03235 75.18307 32180 ft 315 kts 115°
2026-04-28 09:17 18.02346 75.20346 31877 ft 300 kts 115°
2026-04-28 09:17 18.01478 75.22326 31213 ft 299 kts 115°
2026-04-28 09:17 18.00597 75.24330 30352 ft 305 kts 115°
2026-04-28 09:18 17.99708 75.26354 29758 ft 302 kts 115°
2026-04-28 09:18 17.98849 75.28320 29357 ft 291 kts 115°
2026-04-28 09:18 17.98005 75.30243 28800 ft 294 kts 115°
2026-04-28 09:18 17.97132 75.32232 28415 ft 301 kts 115°
2026-04-28 09:19 17.96287 75.34158 28408 ft 286 kts 115°
2026-04-28 09:19 17.95455 75.36054 28235 ft 287 kts 115°
2026-04-28 09:19 17.94610 75.37976 27993 ft 291 kts 115°
2026-04-28 09:19 17.93765 75.39902 27925 ft 288 kts 115°
2026-04-28 09:20 17.92932 75.41796 27921 ft 284 kts 115°
2026-04-28 09:20 17.92100 75.43688 27752 ft 292 kts 115°
2026-04-28 09:20 17.91203 75.45725 27283 ft 323 kts 115°
2026-04-28 09:20 17.90202 75.47966 26903 ft 354 kts 115°
2026-04-28 09:21 17.89121 75.50405 26671 ft 382 kts 115°
2026-04-28 09:21 17.87990 75.53019 26680 ft 404 kts 114°
2026-04-28 09:21 17.86793 75.55776 26704 ft 426 kts 115°
2026-04-28 09:21 17.85527 75.58630 26725 ft 448 kts 115°
2026-04-28 09:22 17.84180 75.61659 26737 ft 469 kts 115°
2026-04-28 09:22 17.82806 75.64784 26747 ft 462 kts 115°
2026-04-28 09:22 17.81499 75.67764 26735 ft 437 kts 115°
2026-04-28 09:22 17.80253 75.70582 26727 ft 414 kts 115°
2026-04-28 09:23 17.79068 75.73255 26722 ft 393 kts 115°
2026-04-28 09:23 17.77949 75.75790 26641 ft 376 kts 115°
2026-04-28 09:23 17.76854 75.78271 26006 ft 375 kts 115°
2026-04-28 09:23 17.75757 75.80746 25407 ft 373 kts 115°
2026-04-28 09:24 17.74674 75.83194 24881 ft 368 kts 115°
2026-04-28 09:24 17.73599 75.85626 24307 ft 365 kts 115°
2026-04-28 09:24 17.72533 75.88033 23773 ft 362 kts 115°
2026-04-28 09:24 17.71476 75.90417 23235 ft 359 kts 115°
2026-04-28 09:25 17.70429 75.92782 22697 ft 356 kts 115°
2026-04-28 09:25 17.69390 75.95126 22152 ft 353 kts 115°
2026-04-28 09:25 17.68359 75.97450 21622 ft 350 kts 115°
2026-04-28 09:25 17.67336 75.99758 21087 ft 347 kts 115°
2026-04-28 09:26 17.66322 76.02040 20562 ft 344 kts 115°
2026-04-28 09:26 17.65317 76.04305 20051 ft 341 kts 115°
2026-04-28 09:26 17.64335 76.06516 19992 ft 327 kts 115°
2026-04-28 09:26 17.63383 76.08656 19997 ft 321 kts 115°
2026-04-28 09:27 17.61535 76.12816 19996 ft 308 kts 115°
2026-04-28 09:27 17.60640 76.14832 19996 ft 302 kts 115°
2026-04-28 09:27 17.59761 76.16801 19998 ft 295 kts 115°
2026-04-28 09:28 17.58866 76.18813 20015 ft 317 kts 115°
2026-04-28 09:28 17.57903 76.20977 20004 ft 325 kts 115°
2026-04-28 09:28 17.56959 76.23101 20009 ft 326 kts 115°
2026-04-28 09:28 17.55983 76.25287 20011 ft 335 kts 115°
2026-04-28 09:29 17.54993 76.27507 20010 ft 338 kts 115°
2026-04-28 09:29 17.53999 76.29744 20014 ft 340 kts 115°
2026-04-28 09:29 17.52997 76.31988 20010 ft 340 kts 115°
2026-04-28 09:29 17.51993 76.34235 20005 ft 341 kts 115°
2026-04-28 09:30 17.50989 76.36486 20008 ft 341 kts 115°
2026-04-28 09:30 17.49991 76.38724 20012 ft 342 kts 115°
2026-04-28 09:30 17.48978 76.40990 20006 ft 341 kts 115°
2026-04-28 09:30 17.47975 76.43234 20008 ft 341 kts 115°
2026-04-28 09:31 17.46965 76.45496 20006 ft 341 kts 115°
2026-04-28 09:31 17.45958 76.47748 20009 ft 341 kts 115°
2026-04-28 09:31 17.44955 76.49991 20012 ft 340 kts 115°
2026-04-28 09:31 17.43949 76.52238 20007 ft 340 kts 115°
2026-04-28 09:32 17.42946 76.54478 20006 ft 340 kts 115°
2026-04-28 09:32 17.41943 76.56721 20007 ft 341 kts 115°
2026-04-28 09:32 17.40935 76.58971 20011 ft 341 kts 115°
2026-04-28 09:32 17.39928 76.61217 20005 ft 341 kts 115°
2026-04-28 09:33 17.38919 76.63468 20011 ft 341 kts 115°
2026-04-28 09:33 17.37914 76.65709 20009 ft 341 kts 115°
2026-04-28 09:33 17.36908 76.67953 20012 ft 340 kts 115°
2026-04-28 09:33 17.35902 76.70195 20011 ft 340 kts 115°
2026-04-28 09:34 17.34907 76.72407 20010 ft 341 kts 115°
2026-04-28 09:34 17.33900 76.74655 20010 ft 341 kts 115°
2026-04-28 09:34 17.32891 76.76903 20010 ft 341 kts 115°
2026-04-28 09:34 17.31882 76.79154 20012 ft 342 kts 114°
2026-04-28 09:35 17.31281 76.81537 20039 ft 341 kts 94°
2026-04-28 09:35 17.31160 76.83985 19794 ft 334 kts 92°
2026-04-28 09:35 17.31065 76.86439 19084 ft 338 kts 92°
2026-04-28 09:35 17.30940 76.88880 18604 ft 334 kts 93°
2026-04-28 09:36 17.30809 76.91293 18098 ft 331 kts 93°
2026-04-28 09:36 17.30689 76.93698 17579 ft 329 kts 93°
2026-04-28 09:36 17.30573 76.96077 17074 ft 326 kts 93°
2026-04-28 09:36 17.30453 76.98439 16571 ft 324 kts 93°
2026-04-28 09:37 17.30333 77.00781 16070 ft 321 kts 93°
2026-04-28 09:37 17.30216 77.03107 15574 ft 319 kts 93°
2026-04-28 09:37 17.30099 77.05415 15089 ft 316 kts 93°
2026-04-28 09:37 17.29984 77.07663 14911 ft 303 kts 93°
2026-04-28 09:38 17.29873 77.09857 14546 ft 296 kts 93°
2026-04-28 09:38 17.29800 77.11258 14471 ft 286 kts 93°
2026-04-28 09:38 17.29663 77.13905 14473 ft 259 kts 93°
2026-04-28 09:38 17.29571 77.15741 14197 ft 251 kts 93°
2026-04-28 09:39 17.29476 77.17572 13680 ft 252 kts 93°
2026-04-28 09:39 17.29381 77.19398 13250 ft 250 kts 93°
2026-04-28 09:39 17.29289 77.21210 12812 ft 248 kts 93°
2026-04-28 09:39 17.29228 77.22401 12529 ft 247 kts 93°
2026-04-28 09:40 17.29133 77.24191 12098 ft 246 kts 93°
2026-04-28 09:40 17.29039 77.25969 11664 ft 244 kts 93°
2026-04-28 09:40 17.28951 77.27737 11240 ft 242 kts 93°
2026-04-28 09:40 17.28860 77.29493 10821 ft 241 kts 93°
2026-04-28 09:41 17.28766 77.31238 10400 ft 239 kts 93°
2026-04-28 09:41 17.28675 77.32968 10009 ft 237 kts 93°
2026-04-28 09:41 17.28590 77.34647 10022 ft 233 kts 93°
2026-04-28 09:41 17.28500 77.36364 10038 ft 231 kts 93°
2026-04-28 09:42 17.28409 77.38062 9998 ft 237 kts 93°
2026-04-28 09:42 17.28321 77.39755 9997 ft 234 kts 93°
2026-04-28 09:42 17.28232 77.41469 9996 ft 234 kts 93°
2026-04-28 09:42 17.28141 77.43173 9998 ft 236 kts 93°
2026-04-28 09:43 17.28049 77.44877 9998 ft 235 kts 93°
2026-04-28 09:43 17.27959 77.46587 9998 ft 235 kts 93°
2026-04-28 09:43 17.27871 77.48293 9998 ft 235 kts 93°
2026-04-28 09:43 17.27780 77.50000 9999 ft 235 kts 93°
2026-04-28 09:44 17.27689 77.51706 10000 ft 235 kts 93°
2026-04-28 09:44 17.27584 77.53411 9999 ft 235 kts 94°
2026-04-28 09:44 17.27472 77.55115 10010 ft 235 kts 94°
2026-04-28 09:44 17.27364 77.56820 10001 ft 235 kts 94°
2026-04-28 09:45 17.27256 77.58523 10009 ft 235 kts 94°
2026-04-28 09:45 17.27150 77.60231 10002 ft 235 kts 94°
2026-04-28 09:45 17.27046 77.61899 9903 ft 230 kts 94°
2026-04-28 09:45 17.26940 77.63580 9409 ft 234 kts 94°
2026-04-28 09:46 17.26831 77.65276 9069 ft 232 kts 94°
2026-04-28 09:46 17.26725 77.66953 8710 ft 230 kts 94°
2026-04-28 09:46 17.26621 77.68623 8336 ft 230 kts 94°
2026-04-28 09:46 17.26515 77.70283 8009 ft 228 kts 94°
2026-04-28 09:47 17.26411 77.71896 7998 ft 223 kts 94°
2026-04-28 09:47 17.26307 77.73543 8001 ft 224 kts 94°
2026-04-28 09:47 17.26204 77.75184 8005 ft 230 kts 94°
2026-04-28 09:47 17.26097 77.76833 8002 ft 228 kts 94°
2026-04-28 09:48 17.25991 77.78490 8008 ft 227 kts 94°
2026-04-28 09:48 17.25885 77.80143 8003 ft 228 kts 94°
2026-04-28 09:48 17.25781 77.81800 8005 ft 228 kts 94°
2026-04-28 09:48 17.25675 77.83457 8006 ft 229 kts 94°
2026-04-28 09:49 17.25567 77.85104 7957 ft 223 kts 94°
2026-04-28 09:49 17.25461 77.86736 7485 ft 227 kts 94°
2026-04-28 09:49 17.25356 77.88385 7141 ft 226 kts 94°
2026-04-28 09:49 17.25250 77.90018 6815 ft 224 kts 94°
2026-04-28 09:50 17.25148 77.91645 6462 ft 224 kts 94°
2026-04-28 09:50 17.25043 77.93264 6132 ft 223 kts 94°
2026-04-28 09:50 17.24937 77.94874 5791 ft 221 kts 94°
2026-04-28 09:50 17.24832 77.96478 5448 ft 221 kts 94°
2026-04-28 09:51 17.24729 77.98068 5224 ft 215 kts 94°
2026-04-28 09:51 17.24637 77.99559 5206 ft 197 kts 94°
2026-04-28 09:51 17.24545 78.00970 4977 ft 192 kts 94°
2026-04-28 09:51 17.24451 78.02334 5005 ft 196 kts 94°
2026-04-28 09:52 17.24357 78.03734 5000 ft 185 kts 94°
2026-04-28 09:52 17.24271 78.05103 5002 ft 189 kts 94°
2026-04-28 09:52 17.24185 78.06453 4999 ft 187 kts 94°
2026-04-28 09:52 17.24095 78.07808 4999 ft 186 kts 94°
2026-04-28 09:53 17.24013 78.09161 4998 ft 186 kts 93°
2026-04-28 09:53 17.23923 78.10515 5002 ft 187 kts 94°
2026-04-28 09:53 17.23826 78.11866 5003 ft 187 kts 94°
2026-04-28 09:53 17.23740 78.13214 4984 ft 182 kts 94°
2026-04-28 09:54 17.23656 78.14534 4578 ft 185 kts 94°
2026-04-28 09:54 17.23569 78.15830 4501 ft 177 kts 93°
2026-04-28 09:54 17.23488 78.17161 4495 ft 179 kts 94°
2026-04-28 09:54 17.23396 78.18485 4504 ft 187 kts 95°
2026-04-28 09:55 17.23302 78.19800 4292 ft 179 kts 94°
2026-04-28 09:55 17.23219 78.21132 3876 ft 185 kts 94°
2026-04-28 09:55 17.23133 78.22455 3597 ft 180 kts 94°
2026-04-28 09:55 17.23052 78.23737 3604 ft 183 kts 94°
2026-04-28 09:56 17.22964 78.25009 3594 ft 168 kts 94°
2026-04-28 09:56 17.22880 78.26236 3611 ft 170 kts 93°
2026-04-28 09:56 17.22890 78.27424 3595 ft 160 kts 88°
2026-04-28 09:56 17.22898 78.28615 3611 ft 160 kts 90°
2026-04-28 09:57 17.22896 78.29752 3285 ft 160 kts 90°
2026-04-28 09:57 17.22913 78.30922 2981 ft 160 kts 89°
2026-04-28 09:57 17.22937 78.32096 2677 ft 157 kts 89°
2026-04-28 09:57 17.22951 78.33212 2676 ft 163 kts 89°
2026-04-28 09:58 17.22964 78.34424 2727 ft 165 kts 89°
2026-04-28 09:58 17.22981 78.35596 2705 ft 164 kts 89°
2026-04-28 09:58 17.22995 78.36769 2718 ft 160 kts 89°
2026-04-28 09:58 17.23022 78.37944 2583 ft 161 kts 89°
2026-04-28 09:59 17.23043 78.39111 2356 ft 159 kts 89°
2026-04-28 09:59 17.23057 78.40260 2219 ft 158 kts 90°
2026-04-28 09:59 17.23068 78.41412 2059 ft 158 kts 89°
2026-04-28 09:59 17.23078 78.42538 2003 ft 151 kts 89°
2026-04-28 10:00 17.23093 78.43671 2017 ft 146 kts 89°
2026-04-28 10:00 17.23105 78.44393 2027 ft 58 kts 90°
2026-04-28 10:00 17.23109 78.44772 2038 ft 42 kts 89°
2026-04-28 10:00 17.23078 78.44919 2041 ft 5 kts 146°
2026-04-28 10:01 17.23057 78.44927 2035 ft 2 kts 161°
2026-04-28 10:01 17.23053 78.44927 2039 ft 1 kts 168°
2026-04-28 10:01 17.23024 78.44928 2032 ft 1 kts 177°
2026-04-28 10:01 17.23023 78.44928 2039 ft 0 kts 178°
2026-04-28 10:03 17.23012 78.44929 2038 ft 3 kts 179°
2026-04-28 10:03 17.22977 78.44930 2037 ft 6 kts 179°
2026-04-28 10:04 17.22928 78.44924 2037 ft 7 kts 207°
2026-04-28 10:04 17.22908 78.44869 2034 ft 9 kts 266°
2026-04-28 10:04 17.22907 78.44791 2029 ft 12 kts 269°
2026-04-28 10:04 17.22905 78.44699 2028 ft 14 kts 269°
2026-04-28 10:05 17.22904 78.44588 2028 ft 16 kts 269°
2026-04-28 10:05 17.22902 78.44462 2027 ft 18 kts 269°
2026-04-28 10:05 17.22901 78.44325 2028 ft 20 kts 269°
2026-04-28 10:05 17.22899 78.44173 2016 ft 22 kts 269°
2026-04-28 10:06 17.22896 78.44010 2016 ft 23 kts 269°
2026-04-28 10:06 17.22895 78.43837 2012 ft 24 kts 269°
2026-04-28 10:06 17.22892 78.43676 2014 ft 20 kts 269°
2026-04-28 10:06 17.22891 78.43539 2013 ft 18 kts 270°
2026-04-28 10:07 17.22889 78.43417 2011 ft 16 kts 269°
2026-04-28 10:07 17.22887 78.43308 2010 ft 14 kts 269°
2026-04-28 10:07 17.22886 78.43208 2007 ft 13 kts 269°
2026-04-28 10:07 17.22895 78.43119 2005 ft 12 kts 281°
2026-04-28 10:08 17.22915 78.43042 2003 ft 10 kts 289°
2026-04-28 10:08 17.22943 78.42978 2003 ft 9 kts 297°
2026-04-28 10:08 17.22972 78.42926 2002 ft 7 kts 301°
2026-04-28 10:08 17.22995 78.42885 2003 ft 6 kts 301°
2026-04-28 10:09 17.23011 78.42855 2003 ft 4 kts 299°
2026-04-28 10:09 17.23033 78.42816 2002 ft 9 kts 300°
2026-04-28 10:09 17.23075 78.42750 2002 ft 13 kts 315°
2026-04-28 10:09 17.23175 78.42730 2001 ft 16 kts 358°
2026-04-28 10:10 17.23288 78.42730 2003 ft 16 kts
2026-04-28 10:10 17.23328 78.42818 2002 ft 13 kts 89°
2026-04-28 10:10 17.23330 78.42892 2004 ft 7 kts 89°
2026-04-28 10:10 17.23330 78.42925 2005 ft 2 kts 89°
2026-04-28 10:11 17.23331 78.42928 2005 ft 0 kts 89°
2026-04-28 10:11 17.23331 78.42929 2005 ft 1 kts 89°
2026-04-28 10:11 17.23332 78.42945 2004 ft 3 kts 84°
2026-04-28 10:12 17.23348 78.42954 2004 ft 3 kts 24°
2026-04-28 10:12 17.23382 78.42955 2005 ft 6 kts 356°
2026-04-28 10:12 17.23403 78.42954 2006 ft 0 kts 359°